FW4657 Weather Reports


Display with metric or nautical units.
time (UTC)temp
F
wind
direction
speed
MPH
gust
MPH
rain 1hr
in
rain 24hr
in
rain mn
in
humidity
%
barometer
mb
20260507193314 56 310 0.0 1.0 0.00 0.02 0.02 46 1007.9
20260507192809 56 286 0.0 0.0 0.00 0.02 0.02 46 1007.9
20260507192307 56 299 0.0 0.0 0.00 0.02 0.02 44 1007.6
20260507191803 57 9 0.0 0.0 0.00 0.02 0.02 43 1007.9
20260507191259 57 323 0.0 1.0 0.00 0.02 0.02 44 1007.9
20260507190756 56 337 1.0 2.0 0.00 0.02 0.02 44 1007.9
20260507190255 57 301 1.0 2.0 0.00 0.02 0.02 44 1007.9
20260507185753 58 315 0.0 1.0 0.00 0.02 0.02 45 1007.9
20260507185249 57 1 0.0 2.0 0.00 0.02 0.02 44 1007.9
20260507184747 58 343 2.0 4.0 0.00 0.02 0.02 42 1007.9
20260507184245 58 338 2.0 2.0 0.00 0.02 0.02 43 1007.9
20260507183741 61 322 1.0 2.0 0.00 0.02 0.02 42 1007.9
20260507183238 59 312 3.0 7.0 0.00 0.02 0.02 40 1007.9
20260507182736 59 319 2.0 4.0 0.00 0.02 0.02 40 1007.9
20260507182230 59 286 2.0 4.0 0.00 0.02 0.02 41 1007.6
20260507181728 61 285 0.0 7.0 0.00 0.02 0.02 40 1007.9
20260507181224 59 68 0.0 3.0 0.00 0.02 0.02 43 1007.9
20260507180720 59 55 1.0 3.0 0.00 0.02 0.02 42 1007.9
20260507180217 59 174 0.0 2.0 0.00 0.02 0.02 44 1007.9
20260507175713 59 47 0.0 4.0 0.00 0.02 0.02 45 1007.9
20260507175210 59 33 2.0 3.0 0.00 0.02 0.02 42 1007.9
20260507174708 59 297 1.0 2.0 0.00 0.02 0.02 43 1008.3
20260507174205 59 334 0.0 2.0 0.00 0.02 0.02 44 1008.3
20260507173702 59 281 2.0 2.0 0.00 0.02 0.02 49 1007.9
20260507173159 59 348 0.0 3.0 0.00 0.02 0.02 53 1008.3
20260507172656 59 300 1.0 3.0 0.00 0.02 0.02 55 1007.9
20260507172147 58 332 0.0 3.0 0.00 0.02 0.02 53 1008.3
20260507171647 59 308 2.0 4.0 0.00 0.02 0.02 55 1008.3
20260507171145 58 160 0.0 2.0 0.00 0.02 0.02 57 1008.3
20260507170642 58 328 2.0 2.0 0.00 0.02 0.02 57 1008.3
20260507170139 57 29 2.0 3.0 0.00 0.02 0.02 57 1008.3
20260507165634 58 299 1.0 6.0 0.00 0.02 0.02 56 1007.9
20260507165131 57 44 0.0 6.0 0.00 0.02 0.02 56 1008.3
20260507164626 57 300 1.0 2.0 0.00 0.02 0.02 55 1008.6
20260507164124 57 125 1.0 3.0 0.00 0.02 0.02 55 1008.6
20260507163621 58 350 1.0 2.0 0.00 0.02 0.02 57 1009.0
20260507163119 59 131 2.0 3.0 0.00 0.02 0.02 55 1008.3
20260507162614 58 214 0.0 1.0 0.00 0.02 0.02 61 1008.6
20260507162111 57 57 0.0 2.0 0.00 0.02 0.02 58 1008.6
20260507161607 58 228 1.0 2.0 0.00 0.02 0.02 55 1008.6
20260507161104 59 63 1.0 2.0 0.00 0.02 0.02 55 1008.6
20260507160600 60 48 0.0 2.0 0.00 0.02 0.02 54 1008.6
20260507160057 59 169 0.0 3.0 0.00 0.02 0.02 56 1009.0
20260507155552 57 164 0.0 0.0 0.00 0.02 0.02 60 1009.0
20260507155049 56 234 0.0 0.0 0.00 0.02 0.02 62 1009.0
20260507154546 57 330 0.0 1.0 0.00 0.02 0.02 60 1009.0
20260507154043 56 72 0.0 1.0 0.00 0.02 0.02 61 1009.0
20260507153539 57 331 0.0 0.0 0.00 0.02 0.02 61 1009.0
20260507153036 56 340 0.0 0.0 0.00 0.02 0.02 60 1009.0
20260507152531 57 316 0.0 2.0 0.00 0.02 0.02 61 1009.3
20260507152023 57 359 0.0 2.0 0.00 0.02 0.02 59 1009.3
20260507151519 58 290 0.0 3.0 0.00 0.02 0.02 59 1009.3
20260507151016 57 337 0.0 2.0 0.00 0.02 0.02 59 1009.0
20260507150513 57 323 0.0 1.0 0.00 0.02 0.02 60 1009.3
20260507150010 57 291 0.0 2.0 0.00 0.02 0.02 59 1009.3
20260507145504 57 229 0.0 1.0 0.00 0.02 0.02 57 1009.0
20260507145003 57 306 1.0 1.0 0.00 0.02 0.02 57 1009.0
20260507144459 56 153 0.0 0.0 0.00 0.02 0.02 59 1009.0
20260507143956 56 317 1.0 4.0 0.00 0.02 0.02 61 1009.3
20260507143454 58 16 1.0 1.0 0.00 0.02 0.02 58 1009.3
20260507142950 60 7 3.0 4.0 0.00 0.02 0.02 57 1009.0
20260507142446 59 158 0.0 0.0 0.00 0.02 0.02 56 1009.3
20260507141943 59 65 0.0 0.0 0.00 0.02 0.02 60 1009.3
20260507141439 57 353 1.0 2.0 0.00 0.02 0.02 58 1009.3
20260507140936 59 347 0.0 1.0 0.00 0.02 0.02 58 1009.3
20260507140433 57 51 1.0 4.0 0.00 0.02 0.02 62 1009.3
20260507135930 57 78 1.0 2.0 0.00 0.02 0.02 59 1009.3
20260507135427 57 238 0.0 0.0 0.00 0.02 0.02 60 1009.6
20260507134924 58 167 0.0 0.0 0.00 0.02 0.02 60 1009.6
20260507134421 57 316 0.0 2.0 0.00 0.02 0.02 60 1009.3
20260507133917 58 294 2.0 3.0 0.00 0.02 0.02 59 1009.6
20260507133413 58 218 1.0 4.0 0.00 0.02 0.02 58 1009.6
20260507132911 57 44 0.0 2.0 0.00 0.02 0.02 63 1009.6
20260507132407 57 0 0.0 2.0 0.00 0.02 0.02 62 1010.0
20260507131906 56 305 0.0 3.0 0.00 0.02 0.02 64 1009.6
20260507131401 57 334 2.0 3.0 0.00 0.02 0.02 63 1009.6
20260507130858 57 294 1.0 2.0 0.00 0.02 0.02 64 1010.0
20260507130354 56 344 2.0 2.0 0.00 0.02 0.02 66 1009.6
20260507125854 54 221 2.0 6.0 0.00 0.02 0.02 69 1009.6
20260507125351 54 42 1.0 2.0 0.00 0.02 0.02 64 1009.6
20260507124848 54 332 0.0 1.0 0.00 0.02 0.02 66 1009.6
20260507124344 53 283 0.0 4.0 0.00 0.02 0.02 68 1010.0
20260507123843 53 312 0.0 2.0 0.00 0.02 0.02 70 1009.6
20260507123340 53 297 0.0 2.0 0.00 0.02 0.02 71 1009.6
20260507122836 52 23 1.0 2.0 0.00 0.02 0.02 69 1009.6
20260507122331 52 287 2.0 3.0 0.00 0.02 0.02 71 1010.0
20260507121828 53 352 2.0 3.0 0.00 0.02 0.02 73 1010.4
20260507121323 52 343 1.0 3.0 0.00 0.02 0.02 71 1009.6
20260507120820 51 280 1.0 2.0 0.00 0.02 0.02 72 1010.0
20260507120317 52 337 1.0 2.0 0.00 0.02 0.02 74 1009.6
20260507115813 51 338 2.0 2.0 0.00 0.02 0.02 74 1010.0
20260507115309 51 312 0.0 0.0 0.00 0.02 0.02 74 1010.0
20260507114805 51 278 0.0 2.0 0.00 0.02 0.02 75 1010.0
20260507114302 51 329 1.0 1.0 0.00 0.02 0.02 75 1010.0
20260507113759 50 320 0.0 0.0 0.00 0.02 0.02 75 1010.4
20260507113256 51 283 0.0 2.0 0.00 0.02 0.02 77 1010.0
20260507112754 50 342 0.0 0.0 0.00 0.02 0.02 77 1010.0
20260507112250 48 321 0.0 0.0 0.00 0.02 0.02 76 1010.0
20260507111748 50 13 0.0 0.0 0.00 0.02 0.02 81 1010.4
20260507111239 50 337 0.0 0.0 0.00 0.02 0.02 87 1010.4
20260507110735 48 184 0.0 0.0 0.00 0.02 0.02 91 1010.4
20260507110232 47 170 0.0 0.0 0.00 0.02 0.02 94 1010.4
20260507105729 46 169 0.0 0.0 0.00 0.02 0.02 94 1010.4
20260507105225 46 230 0.0 0.0 0.00 0.02 0.02 92 1010.4
20260507104722 46 217 0.0 0.0 0.00 0.02 0.02 93 1010.4
20260507104219 45 329 0.0 0.0 0.00 0.02 0.02 92 1010.8
20260507103714 44 334 0.0 1.0 0.00 0.02 0.02 96 1010.4
20260507103211 43 333 1.0 2.0 0.00 0.02 0.02 97 1010.4
20260507102707 42 320 1.0 2.0 0.00 0.02 0.02 99 1010.4
20260507102204 42 312 0.0 0.0 0.00 0.02 0.02 99 1010.8
20260507101700 42 294 0.0 0.0 0.00 0.02 0.02 99 1010.4
20260507101155 42 282 0.0 0.0 0.00 0.02 0.02 99 1010.4
20260507100653 42 261 0.0 0.0 0.00 0.02 0.02 98 1010.0
20260507100151 42 208 0.0 0.0 0.00 0.02 0.02 98 1010.0
20260507095649 41 322 0.0 0.0 0.00 0.02 0.02 99 1010.4
20260507095145 42 188 0.0 0.0 0.00 0.02 0.02 99 1010.4
20260507094642 42 255 0.0 0.0 0.00 0.02 0.02 99 1010.0
20260507094138 42 293 0.0 0.0 0.00 0.02 0.02 99 1010.0
20260507093636 42 227 0.0 0.0 0.00 0.02 0.02 99 1010.0
20260507093135 42 203 0.0 0.0 0.00 0.02 0.02 99 1010.0
20260507092631 42 275 0.0 0.0 0.00 0.02 0.02 99 1009.6
20260507092127 42 214 0.0 0.0 0.00 0.02 0.02 99 1010.0
20260507091624 42 256 0.0 0.0 0.00 0.02 0.02 99 1009.6
20260507091120 42 294 0.0 0.0 0.00 0.02 0.02 99 1009.6
20260507090616 42 175 0.0 0.0 0.00 0.02 0.02 99 1009.6
20260507090114 42 208 0.0 0.0 0.00 0.02 0.02 99 1009.6
20260507085610 42 206 0.0 0.0 0.00 0.02 0.02 99 1009.6
20260507085107 42 174 0.0 0.0 0.00 0.02 0.02 99 1009.6
20260507084604 42 241 0.0 0.0 0.00 0.02 0.02 99 1009.6
20260507084101 42 184 0.0 0.0 0.00 0.02 0.02 99 1010.0
20260507083557 42 196 0.0 0.0 0.00 0.02 0.02 99 1009.6
20260507083054 42 217 0.0 0.0 0.00 0.02 0.02 99 1009.6
20260507082550 42 231 0.0 0.0 0.00 0.02 0.02 99 1010.4
20260507082047 42 353 0.0 1.0 0.00 0.02 0.02 99 1010.0
20260507081542 42 217 0.0 0.0 0.00 0.02 0.02 99 1009.6
20260507081034 42 226 0.0 0.0 0.00 0.02 0.02 99 1009.3
20260507080530 43 300 0.0 0.0 0.00 0.02 0.02 99 1009.0
20260507080026 43 199 0.0 0.0 0.00 0.02 0.02 99 1009.6
20260507075522 43 167 0.0 0.0 0.00 0.02 0.02 99 1009.3
20260507075019 43 32 0.0 1.0 0.00 0.02 0.02 99 1009.3
20260507074515 43 230 2.0 3.0 0.00 0.02 0.02 99 1009.6
20260507074014 43 188 0.0 0.0 0.00 0.02 0.02 98 1009.3
20260507073510 43 282 0.0 1.0 0.00 0.02 0.02 98 1009.6
20260507073006 43 312 2.0 2.0 0.00 0.02 0.02 98 1009.6
20260507072504 43 281 1.0 2.0 0.00 0.02 0.02 98 1009.6
20260507072001 43 283 2.0 3.0 0.00 0.02 0.02 98 1009.3
20260507071458 43 338 1.0 2.0 0.00 0.02 0.02 98 1009.6
20260507070954 43 291 0.0 2.0 0.00 0.02 0.02 97 1009.3
20260507070452 43 319 1.0 2.0 0.00 0.02 0.02 97 1009.3
20260507065949 43 307 1.0 3.0 0.00 0.02 0.02 97 1009.0
20260507065445 43 326 2.0 3.0 0.00 0.02 0.02 98 1009.0
20260507064942 43 341 2.0 3.0 0.00 0.02 0.02 99 1009.0
20260507064441 43 325 2.0 2.0 0.00 0.02 0.02 99 1009.0
20260507063938 43 334 1.0 2.0 0.00 0.02 0.02 99 1009.0
20260507063435 43 323 1.0 2.0 0.00 0.02 0.02 99 1009.0
20260507062932 43 211 1.0 2.0 0.00 0.02 0.02 99 1009.0
20260507062429 43 328 0.0 2.0 0.00 0.02 0.02 99 1009.0
20260507061926 45 254 0.0 0.0 0.00 0.02 0.02 99 1008.6
20260507061424 44 323 0.0 0.0 0.00 0.02 0.02 99 1008.6
20260507060923 45 185 0.0 0.0 0.00 0.02 0.02 99 1008.6
20260507060419 45 168 1.0 2.0 0.00 0.02 0.02 99 1008.6
20260507055916 44 208 0.0 0.0 0.00 0.02 0.02 99 1008.6
20260507055410 44 236 0.0 0.0 0.00 0.02 0.02 99 1008.6
20260507054908 45 219 0.0 0.0 0.00 0.02 0.02 99 1008.6
20260507054404 45 206 0.0 0.0 0.00 0.02 0.02 99 1008.6
20260507053901 45 250 0.0 0.0 0.00 0.02 0.02 99 1008.6
20260507053359 45 184 0.0 0.0 0.00 0.02 0.02 99 1008.6
20260507052858 44 232 0.0 0.0 0.00 0.02 0.02 99 1008.3
20260507052354 45 204 0.0 0.0 0.00 0.02 0.02 99 1008.3
20260507051852 44 222 0.0 3.0 0.00 0.02 0.02 99 1008.3
20260507051349 45 178 1.0 2.0 0.00 0.02 0.02 99 1008.3
20260507050846 46 341 1.0 2.0 0.00 0.02 0.02 99 1008.3
20260507050342 46 216 0.0 3.0 0.00 0.02 0.02 99 1007.9
20260507045839 46 306 1.0 2.0 0.00 0.02 0.02 99 1007.9
20260507045335 46 304 1.0 2.0 0.00 0.02 0.02 99 1008.3
20260507044833 46 335 2.0 3.0 0.00 0.02 0.02 99 1008.6
20260507044329 46 305 1.0 2.0 0.00 0.02 0.02 99 1008.6
20260507043825 46 338 2.0 3.0 0.00 0.02 0.02 99 1008.6
20260507043322 46 337 1.0 2.0 0.00 0.02 0.02 99 1008.6
20260507042818 47 335 2.0 2.0 0.00 0.02 0.02 99 1009.0
20260507042314 47 316 1.0 2.0 0.00 0.02 0.02 99 1008.6
20260507041811 47 315 2.0 3.0 0.05 0.02 0.02 99 1008.6
20260507041308 47 326 2.0 3.0 0.12 0.02 0.02 99 1008.6
20260507040805 47 330 0.0 0.0 0.05 0.01 0.01 99 1008.6
20260507040301 47 302 0.0 2.0 0.05 0.00 0.00 99 1009.0
20260507035757 48 306 1.0 1.0 0.07 0.37 0.37 99 1009.0
20260507035252 48 333 0.0 0.0 0.00 0.36 0.36 99 1009.0
20260507034750 48 292 1.0 1.0 0.05 0.35 0.35 99 1008.6
20260507034247 48 316 2.0 3.0 0.05 0.35 0.35 99 1008.6
20260507033745 48 286 1.0 2.0 0.00 0.34 0.34 99 1008.3
20260507033242 48 321 1.0 2.0 0.00 0.34 0.34 99 1008.3
20260507032739 50 329 1.0 2.0 0.00 0.34 0.34 99 1008.3
20260507032236 50 299 2.0 2.0 0.00 0.34 0.34 99 1007.9
20260507031732 50 309 1.0 1.0 0.00 0.34 0.34 99 1008.3
20260507031229 50 327 2.0 2.0 0.00 0.34 0.34 99 1008.3
20260507030726 51 173 1.0 3.0 0.00 0.34 0.34 99 1007.9
20260507030223 51 336 1.0 2.0 0.00 0.34 0.34 99 1007.9
20260507025720 51 329 0.0 1.0 0.00 0.34 0.34 99 1007.9
20260507025217 51 329 1.0 2.0 0.12 0.34 0.34 99 1007.9
20260507024716 51 312 2.0 2.0 0.05 0.33 0.33 99 1007.6
20260507024213 52 248 0.0 0.0 0.00 0.32 0.32 99 1007.9
20260507023708 52 218 0.0 0.0 0.07 0.32 0.32 99 1007.9
20260507023205 52 331 0.0 0.0 0.07 0.32 0.32 99 1007.9
20260507022702 52 331 0.0 0.0 0.07 0.31 0.31 99 1007.6
20260507022158 52 230 0.0 0.0 0.05 0.30 0.30 99 1007.9
20260507021654 53 202 0.0 0.0 0.05 0.30 0.30 99 1007.6
20260507021149 53 290 0.0 0.0 0.00 0.29 0.29 99 1007.9
20260507020649 53 288 0.0 0.0 0.00 0.29 0.29 99 1007.6
20260507020144 53 248 0.0 0.0 0.00 0.29 0.29 99 1007.6
20260507015643 53 312 0.0 0.0 0.00 0.29 0.29 99 1007.3
20260507015140 53 314 0.0 0.0 0.00 0.29 0.29 99 1007.6
20260507014636 55 311 0.0 0.0 0.00 0.29 0.29 99 1007.6
20260507014132 54 184 0.0 0.0 0.00 0.29 0.29 99 1007.6
20260507013629 54 333 0.0 0.0 0.00 0.29 0.29 99 1007.6
20260507013126 56 343 0.0 0.0 0.00 0.29 0.29 99 1007.6
20260507012624 56 336 0.0 0.0 0.00 0.29 0.29 99 1007.6
20260507012119 57 309 0.0 0.0 0.00 0.29 0.29 99 1007.9
20260507011618 57 237 0.0 0.0 0.00 0.29 0.29 99 1007.6
20260507011113 57 217 0.0 0.0 0.00 0.29 0.29 99 1007.6
20260507010608 57 296 0.0 0.0 0.00 0.29 0.29 99 1007.6
20260507010104 57 42 0.0 0.0 0.00 0.29 0.29 99 1007.6
20260507005602 57 190 0.0 0.0 0.00 0.29 0.29 99 1007.6
20260507005058 56 36 0.0 0.0 0.00 0.29 0.29 99 1007.6
20260507004555 56 49 0.0 0.0 0.00 0.29 0.29 99 1007.6
20260507004052 57 347 1.0 1.0 0.00 0.29 0.29 99 1007.3
20260507003548 56 101 0.0 1.0 0.00 0.29 0.29 99 1007.3
20260507003043 56 123 1.0 3.0 0.00 0.29 0.29 99 1007.6
20260507002540 56 107 0.0 0.0 0.07 0.29 0.29 99 1007.3
20260507002036 56 136 0.0 0.0 0.19 0.29 0.29 99 1007.3
20260507001532 56 112 0.0 0.0 0.12 0.28 0.28 99 1007.3
20260507001025 56 79 0.0 0.0 0.05 0.26 0.26 99 1007.3
20260507000521 56 71 0.0 0.0 0.12 0.26 0.26 99 1007.3
20260507000016 56 65 0.0 0.0 0.07 0.25 0.25 99 1006.9
20260506235514 56 75 0.0 1.0 0.00 0.24 0.24 99 1007.3
20260506235009 56 101 1.0 2.0 0.00 0.24 0.24 99 1006.6
20260506234507 57 73 0.0 2.0 0.00 0.24 0.24 99 1007.3
20260506234004 57 17 0.0 0.0 0.00 0.24 0.24 99 1006.9
20260506233501 57 55 0.0 1.0 0.00 0.24 0.24 99 1006.9
20260506232957 57 29 0.0 0.0 0.00 0.24 0.24 99 1006.9
20260506232454 57 62 0.0 0.0 0.00 0.24 0.24 99 1006.9
20260506231950 57 195 0.0 0.0 0.00 0.24 0.24 99 1007.3
20260506231447 57 315 0.0 0.0 0.00 0.24 0.24 99 1007.3
20260506230944 57 352 0.0 0.0 0.05 0.24 0.24 99 1006.9
20260506230440 57 356 1.0 1.0 0.05 0.24 0.24 99 1007.3
20260506225937 57 153 0.0 1.0 0.07 0.23 0.23 99 1006.9
20260506225435 57 110 0.0 1.0 0.00 0.23 0.23 99 1007.3
20260506224931 57 78 0.0 2.0 0.05 0.22 0.22 99 1007.3
20260506224429 57 100 0.0 0.0 0.05 0.22 0.22 99 1007.6
20260506223925 57 42 0.0 0.0 0.07 0.21 0.21 99 1007.3
20260506223420 58 54 0.0 0.0 0.14 0.21 0.21 99 1007.3
20260506222918 58 350 0.0 0.0 0.19 0.20 0.20 99 1007.3
20260506222414 58 51 0.0 0.0 0.12 0.19 0.19 99 1007.6
20260506221911 58 93 0.0 0.0 0.12 0.17 0.17 99 1007.6
20260506221408 58 6 0.0 0.0 0.07 0.16 0.16 99 1007.6
20260506220906 58 180 0.0 0.0 0.00 0.15 0.15 99 1007.6
20260506220402 58 187 0.0 0.0 0.05 0.15 0.15 99 1007.6
20260506215858 58 309 0.0 1.0 0.05 0.15 0.15 99 1007.9
20260506215354 58 89 0.0 1.0 0.00 0.14 0.14 99 1007.9
20260506214850 58 100 0.0 1.0 0.00 0.14 0.14 99 1007.9
20260506214347 58 82 0.0 0.0 0.00 0.14 0.14 99 1007.9
20260506213845 58 95 0.0 0.0 0.00 0.14 0.14 99 1007.9
20260506213342 58 101 0.0 0.0 0.00 0.14 0.14 99 1008.3
20260506212839 58 354 0.0 0.0 0.00 0.14 0.14 99 1008.3
20260506212336 58 83 0.0 1.0 0.00 0.14 0.14 99 1008.3
20260506211830 58 50 0.0 0.0 0.00 0.14 0.14 99 1008.3
20260506211327 58 222 0.0 1.0 0.00 0.14 0.14 99 1008.3
20260506210824 58 41 0.0 0.0 0.00 0.14 0.14 99 1008.3
20260506210321 58 5 0.0 0.0 0.00 0.14 0.14 99 1008.6
20260506205818 58 70 0.0 0.0 0.00 0.14 0.14 99 1008.3
20260506205314 58 43 0.0 0.0 0.00 0.14 0.14 99 1008.3
20260506204810 58 73 0.0 2.0 0.00 0.14 0.14 99 1008.3
20260506204308 58 166 0.0 0.0 0.00 0.14 0.14 99 1008.3
20260506203806 58 92 1.0 2.0 0.00 0.14 0.14 99 1008.3
20260506203303 58 86 0.0 1.0 0.00 0.14 0.14 99 1008.3
20260506202800 58 49 1.0 2.0 0.00 0.14 0.14 99 1007.9
20260506202257 58 27 0.0 2.0 0.00 0.14 0.14 99 1007.9
20260506201753 58 33 0.0 0.0 0.07 0.14 0.14 99 1008.3
20260506201250 58 125 0.0 0.0 0.07 0.14 0.14 99 1008.3
20260506200747 58 159 0.0 0.0 0.00 0.13 0.13 99 1008.3
20260506200243 58 311 0.0 0.0 0.00 0.13 0.13 99 1008.3
20260506195739 58 213 0.0 0.0 0.00 0.13 0.13 99 1008.6
20260506195236 58 112 0.0 0.0 0.05 0.13 0.13 99 1008.6
20260506194734 58 72 0.0 0.0 0.05 0.13 0.13 99 1008.6
20260506194230 58 108 0.0 1.0 0.00 0.12 0.12 99 1008.6
20260506193728 58 87 0.0 0.0 0.07 0.12 0.12 99 1009.0